Simultaneous Nadir Overpasses (SNOs) Predictions

Prediction of SNOs between NPP and TERRA Satellite Orbit:

Table of predicted SNOs for the next 14.0 days since TLE Epoch: 1/16/2021
Index Date (NPP) Time (NPP) Lat,Lon (NPP) SZA (NPP ) Date (TERRA) Time (TERRA) Lat,Lon (TERRA) SZA (TERRA ) Distance(km) Time Diff (sec)
1 01/16/2021 10:38:52 -68.43,-161.26 90.79 01/16/2021 10:39:46 -68.44,-161.24 90.79 1.57 54
2 01/16/2021 11:29:36 68.31, 6.20 89.08 01/16/2021 11:29:14 68.28, 6.21 89.05 3.51 22
3 01/16/2021 12:20:04 -67.47, 174.56 91.80 01/16/2021 12:18:55 -67.55, 173.00 91.67 67.19 69
4 01/19/2021 02:05:22 69.46, 145.78 89.75 01/19/2021 02:06:28 69.38, 148.19 89.60 94.67 66
5 01/19/2021 02:55:45 -68.35, -45.39 91.41 01/19/2021 02:56:14 -68.38, -45.44 91.39 3.32 29
6 01/19/2021 03:46:29 68.24, 122.06 88.47 01/19/2021 03:45:41 68.26, 122.07 88.50 3.24 48
7 01/21/2021 18:22:00 68.54, -97.18 88.21 01/21/2021 18:23:11 68.52, -97.02 88.18 6.72 71
8 01/21/2021 19:12:40 -68.33, 70.40 92.02 01/21/2021 19:12:42 -68.36, 70.42 91.99 3.43 2
9 01/21/2021 20:03:23 68.16,-122.07 87.81 01/21/2021 20:02:10 68.19,-122.14 87.84 3.97 73
10 01/24/2021 10:38:53 68.41, 18.75 87.46 01/24/2021 10:39:40 68.44, 18.76 87.48 3.45 47
11 01/24/2021 11:29:35 -68.31,-173.80 92.66 01/24/2021 11:29:11 -68.29,-173.79 92.69 3.09 24
12 01/24/2021 12:20:01 67.23, -5.17 86.22 01/24/2021 12:18:54 67.27, -7.31 86.32 92.38 67
13 01/27/2021 02:05:20 -69.36, -34.08 92.22 01/27/2021 02:06:28 -69.26, -31.98 92.40 83.30 68
14 01/27/2021 02:55:47 68.35, 134.60 86.72 01/27/2021 02:56:09 68.36, 134.54 86.73 2.87 22
15 01/27/2021 03:46:29 -68.24, -57.95 93.40 01/27/2021 03:45:39 -68.26, -57.94 93.38 1.80 50
16 01/29/2021 18:21:57 -68.44, 82.94 93.89 01/29/2021 18:23:09 -68.45, 82.89 93.89 2.50 72
17 01/29/2021 19:12:41 68.34,-109.61 86.00 01/29/2021 19:12:36 68.32,-109.62 85.99 1.31 5
18 01/29/2021 20:03:21 -68.12, 57.98 94.24 01/29/2021 20:02:07 -68.17, 57.84 94.17 7.98 74



Historial Predications of SNOs between NPP and TERRA
